STARLINK-11431, 62890

Orbit data source: Space-Track

STARLINK-11431, 62890 is a payload satellite owned by SpaceX/Seattle (US) in LEO that was launched on Tue, 04 Feb 2025 UTC via an FALCON 9 launch vehicle from the Air Force Eastern Test Range (AFETR). Payload-class satellites include a variety of spacecraft equipped with specific instruments for various scientific and technological missions. These include communications satellites like Starlink; space stations such as the ISS; scientific satellites like the Hubble; Earth observation satellites from companies like Planet Labs, Umbra, and HawkEye 360; GPS; miniature CubeSats for education and research; and military/defense satellites.

Loading next visibility...
Identifier
62890, 2025-024M
Orbit
LEO
Country
Flag of USUS
Related business
Manufacturer
SpaceX/Seattle
Mission
Operational Commercial Communications
Bus & Motor
STARLINK V2MD, Unknown motor
Mass
960 kg wet, ~910 kg dry
Launch date (UTC)
2025-02-04 (9 months ago)
Launch vehicle
FALCON 9
Launch site
Air Force Eastern Test Range (AFETR)
Object type
Payload
Rocket body
Debris
Shape & HBR
Box + 2 Pan, 18.1 m
Radar Cross Section
36.964 m², Large (>1 m²)

Expand to show TLE details & history
Last TLE update: 18 hours ago

TLE from 18 hours ago
0 STARLINK-11431
1 62890U 25024M   25302.91185332  .00291663  00000-0  21789-2 0  9998
2 62890  42.9997 250.1873 0003554 281.1383  78.9085 15.71042231 42892
Epoch: 2025-10-29T21:53Z
TLE epoch observation values (Epoch: 2025-10-29T21:53:04.126Z)
Latitude
-0.00004°
Longitude
-116.55812°
Altitude
355.229 km
Speed
7.698 km/s
True Right ascension
16h 40m 44s
True Declination
0° 00' 00"
Sunlit
Object was in daylight at epoch
Visualization orbit readout
Latitude
Unknown
Longitude
Unknown
Altitude
Unknown
Speed
Unknown
Apparent Right ascension
Unknown
Apparent Declination
Unknown
Sunlit
N/A
Visualization observer readout
Local Sidereal Time
11:29:38
Azimuth
Unknown
Elevation
Unknown
Doppler factor
Unknown
Orbital elements
Apogee altitude
360.293 km
Perigee altitude
355.505 km
Semi-major axis
6,736.036 km
Eccentricity
0.00036
Inclination
42.9997°
RAAN
250.1873°
Arg. of periapsis
281.1383°
True anomaly
78.94847°
Mean anomaly
78.9085°
Eccentric anomaly
78.92848°
Mean motion
3.92588 °/min
Orbital period
91.7 mins
BSTAR
0.0021789
Loading maneuver chart data...
Computing Atmospheric mass density...
Loading historical data...
Loading historical data...
Loading historical data...
Loading historical data...
Loading historical data...
Loading historical data...
Loading historical data...

Documentation

Showing up to 5 results
|